Simultaneous Nadir Overpasses (SNOs) Predictions

Prediction of SNOs between TERRA and METOP-C Satellite Orbit:

Table of predicted SNOs for the next 14.0 days since TLE Epoch: 4/10/2019
Index Date (TERRA) Time (TERRA) Lat,Lon (TERRA) SZA (TERRA ) Date (METOP-C) Time (METOP-C) Lat,Lon (METOP-C) SZA (METOP-C ) Distance(km) Time Diff (sec)
1 04/11/2019 02:09:07 81.28,-165.42 75.87 04/11/2019 02:08:04 81.28,-165.41 75.85 0.52 63
2 04/11/2019 02:58:33 -81.30, 2.52 104.10 04/11/2019 02:58:43 -81.29, 2.33 104.12 3.13 10
3 04/13/2019 21:43:22 81.28, -98.98 74.87 04/13/2019 21:42:28 81.28, -99.00 74.85 0.69 54
4 04/13/2019 22:32:48 -81.30, 68.98 105.10 04/13/2019 22:33:07 -81.29, 68.79 105.12 3.18 19
5 04/16/2019 17:17:36 81.28, -32.55 73.89 04/16/2019 17:16:51 81.28, -32.59 73.87 0.91 45
6 04/16/2019 18:07:02 -81.30, 135.42 106.08 04/16/2019 18:07:30 -81.29, 135.25 106.09 2.85 28
7 04/19/2019 12:51:50 81.30, 34.23 72.98 04/19/2019 12:51:14 81.29, 34.21 72.95 0.94 36
8 04/19/2019 13:41:17 -81.30,-158.16 107.04 04/19/2019 13:41:54 -81.29,-158.28 107.04 2.15 37
9 04/22/2019 08:26:05 81.30, 100.62 72.03 04/22/2019 08:25:38 81.29, 100.61 72.02 0.54 27




NCC Satellite Simultaneous Nadir Overpasses (SNOs) Prediction Service
